Stündliche Wetter Bolshie Yakovichi

Heute, 24 Januar, Sonntag

Zeit Temperatur Niederschläge Wind Luftdruck Luftfeuchtigkeit
00:00 +1°C° 0 mm 4 m/S 734 mmHg 90%
01:00 0°C° 0 mm 4 m/S 734 mmHg 91%
02:00 0°C° 0 mm 4 m/S 734 mmHg 92%
03:00 +1°C° 0 mm 3 m/S 733 mmHg 92%
04:00 +1°C° 0 mm 3 m/S 733 mmHg 93%
05:00 +1°C° 0 mm 3 m/S 733 mmHg 94%
06:00 0°C° 0 mm 3 m/S 733 mmHg 94%
07:00 0°C° 0 mm 3 m/S 733 mmHg 95%
08:00 -1°C° 0 mm 3 m/S 733 mmHg 95%
09:00 -1°C° 0.1 mm 2 m/S 733 mmHg 96%
10:00 -1°C° 0.1 mm 2 m/S 732 mmHg 96%
11:00 +2°C° 0.1 mm 1 m/S 732 mmHg 97%
12:00 +2°C° 0.4 mm 1 m/S 732 mmHg 98%
13:00 +2°C° 0.4 mm 1 m/S 731 mmHg 98%
14:00 +2°C° 0.4 mm 1 m/S 731 mmHg 99%
15:00 +2°C° 0.6 mm 1 m/S 731 mmHg 98%
16:00 +2°C° 0.6 mm 1 m/S 731 mmHg 98%
17:00 +2°C° 0.6 mm 1 m/S 730 mmHg 98%
18:00 +1°C° 0.6 mm 2 m/S 731 mmHg 98%
19:00 -1°C° 0.6 mm 2 m/S 731 mmHg 98%
20:00 -1°C° 0.6 mm 3 m/S 731 mmHg 98%
21:00 -2°C° 0.4 mm 4 m/S 731 mmHg 98%
22:00 -2°C° 0.4 mm 4 m/S 731 mmHg 97%
23:00 -2°C° 0.4 mm 4 m/S 731 mmHg 97%

Morgen, 25 Januar, Montag

Zeit Temperatur Niederschläge Wind Luftdruck Luftfeuchtigkeit
00:00 -2°C° 0.1 mm 4 m/S 732 mmHg 97%
01:00 -2°C° 0.1 mm 4 m/S 733 mmHg 97%
02:00 -2°C° 0.1 mm 4 m/S 733 mmHg 96%
03:00 -2°C° 0 mm 4 m/S 734 mmHg 96%
04:00 -1°C° 0 mm 3 m/S 734 mmHg 96%
05:00 -1°C° 0 mm 3 m/S 734 mmHg 97%
06:00 -1°C° 0.1 mm 3 m/S 735 mmHg 95%
07:00 -1°C° 0.1 mm 3 m/S 735 mmHg 94%
08:00 -1°C° 0.1 mm 3 m/S 736 mmHg 93%
09:00 -1°C° 0 mm 2 m/S 736 mmHg 91%
10:00 -1°C° 0 mm 2 m/S 736 mmHg 90%
11:00 -1°C° 0 mm 2 m/S 737 mmHg 88%
12:00 +1°C° 0 mm 1 m/S 737 mmHg 87%
13:00 +1°C° 0 mm 1 m/S 737 mmHg 87%
14:00 +1°C° 0 mm 1 m/S 737 mmHg 86%
15:00 +1°C° 0 mm 1 m/S 737 mmHg 88%
16:00 -1°C° 0 mm 2 m/S 736 mmHg 89%
17:00 -2°C° 0 mm 2 m/S 736 mmHg 91%
18:00 -2°C° 0.1 mm 2 m/S 736 mmHg 91%
19:00 -2°C° 0.1 mm 3 m/S 736 mmHg 92%
20:00 -3°C° 0.1 mm 4 m/S 736 mmHg 92%
21:00 -4°C° 0.3 mm 5 m/S 736 mmHg 92%
22:00 -4°C° 0.3 mm 6 m/S 735 mmHg 91%
23:00 -4°C° 0.3 mm 7 m/S 735 mmHg 91%

übermorgen, 26 Januar, Dienstag

Zeit Temperatur Niederschläge Wind Luftdruck Luftfeuchtigkeit
00:00 -4°C° 1 mm 7 m/S 734 mmHg 92%
01:00 -5°C° 1 mm 8 m/S 734 mmHg 93%
02:00 -5°C° 1 mm 9 m/S 733 mmHg 95%
03:00 -5°C° 1.5 mm 10 m/S 733 mmHg 94%
04:00 -5°C° 1.5 mm 10 m/S 732 mmHg 94%
05:00 -6°C° 1.5 mm 11 m/S 731 mmHg 94%
06:00 -6°C° 1.6 mm 11 m/S 731 mmHg 94%
07:00 -6°C° 1.6 mm 11 m/S 731 mmHg 94%
08:00 -6°C° 1.6 mm 11 m/S 731 mmHg 94%
09:00 -6°C° 1.6 mm 11 m/S 731 mmHg 94%
10:00 -6°C° 1.6 mm 11 m/S 731 mmHg 94%
11:00 -5°C° 1.6 mm 10 m/S 731 mmHg 94%
12:00 -5°C° 1.3 mm 10 m/S 731 mmHg 95%
13:00 -5°C° 1.3 mm 10 m/S 731 mmHg 95%
14:00 -4°C° 1.3 mm 10 m/S 732 mmHg 95%
15:00 -4°C° 1.1 mm 10 m/S 732 mmHg 95%
16:00 -5°C° 1.1 mm 9 m/S 733 mmHg 95%
17:00 -5°C° 1.1 mm 9 m/S 733 mmHg 95%
18:00 -5°C° 0.6 mm 9 m/S 733 mmHg 94%
19:00 -5°C° 0.6 mm 10 m/S 734 mmHg 94%
20:00 -5°C° 0.6 mm 10 m/S 734 mmHg 93%
21:00 -5°C° 0.4 mm 9 m/S 734 mmHg 93%
22:00 -5°C° 0.4 mm 9 m/S 735 mmHg 92%
23:00 -5°C° 0.4 mm 9 m/S 735 mmHg 92%

27 Januar, Mittwoch

Zeit Temperatur Niederschläge Wind Luftdruck Luftfeuchtigkeit
00:00 -5°C° 0.2 mm 8 m/S 735 mmHg 92%
01:00 -5°C° 0.2 mm 8 m/S 735 mmHg 92%
02:00 -4°C° 0.2 mm 7 m/S 735 mmHg 92%
03:00 -4°C° 0.2 mm 7 m/S 736 mmHg 92%
04:00 -4°C° 0.2 mm 7 m/S 736 mmHg 92%
05:00 -4°C° 0.2 mm 7 m/S 736 mmHg 91%
06:00 -4°C° 0.1 mm 7 m/S 737 mmHg 92%
07:00 -4°C° 0.1 mm 7 m/S 737 mmHg 93%
08:00 -4°C° 0.1 mm 6 m/S 737 mmHg 94%
09:00 -4°C° 0.1 mm 7 m/S 738 mmHg 92%
10:00 -4°C° 0.1 mm 7 m/S 738 mmHg 91%
11:00 -4°C° 0.1 mm 7 m/S 738 mmHg 89%
12:00 -4°C° 0 mm 7 m/S 739 mmHg 89%
13:00 -4°C° 0 mm 7 m/S 739 mmHg 88%
14:00 -4°C° 0 mm 7 m/S 739 mmHg 87%
15:00 -4°C° 0 mm 6 m/S 739 mmHg 88%
16:00 -4°C° 0 mm 5 m/S 740 mmHg 88%
17:00 -3°C° 0 mm 4 m/S 740 mmHg 89%
18:00 -3°C° 0 mm 4 m/S 740 mmHg 90%
19:00 -3°C° 0 mm 4 m/S 741 mmHg 91%
20:00 -3°C° 0 mm 4 m/S 741 mmHg 92%
21:00 -3°C° 0 mm 4 m/S 741 mmHg 92%
22:00 -4°C° 0 mm 4 m/S 742 mmHg 92%
23:00 -4°C° 0 mm 3 m/S 742 mmHg 92%

28 Januar, Donnerstag

Zeit Temperatur Niederschläge Wind Luftdruck Luftfeuchtigkeit
00:00 -4°C° 0 mm 3 m/S 742 mmHg 92%
01:00 -4°C° 0 mm 3 m/S 742 mmHg 92%
02:00 -2°C° 0 mm 3 m/S 742 mmHg 92%
03:00 -4°C° 0 mm 3 m/S 742 mmHg 92%
04:00 -4°C° 0 mm 3 m/S 742 mmHg 93%
05:00 -4°C° 0 mm 3 m/S 742 mmHg 93%
06:00 -4°C° 0.1 mm 3 m/S 742 mmHg 94%
07:00 -5°C° 0.1 mm 3 m/S 742 mmHg 95%
08:00 -5°C° 0.1 mm 3 m/S 742 mmHg 96%
09:00 -4°C° 0 mm 3 m/S 743 mmHg 95%
10:00 -4°C° 0 mm 3 m/S 743 mmHg 94%
11:00 -2°C° 0 mm 3 m/S 743 mmHg 94%
12:00 -2°C° 0.1 mm 3 m/S 742 mmHg 92%
13:00 -2°C° 0.1 mm 3 m/S 742 mmHg 91%
14:00 -1°C° 0.1 mm 3 m/S 742 mmHg 90%
15:00 -2°C° 0 mm 3 m/S 742 mmHg 90%
16:00 -3°C° 0 mm 2 m/S 742 mmHg 90%
17:00 -4°C° 0 mm 2 m/S 742 mmHg 91%
18:00 -3°C° 0 mm 1 m/S 742 mmHg 90%
19:00 -4°C° 0 mm 1 m/S 742 mmHg 90%
20:00 -6°C° 0 mm 1 m/S 742 mmHg 89%

29 Januar, Freitag

Zeit Temperatur Niederschläge Wind Luftdruck Luftfeuchtigkeit
Mehr zeigen

Wir brauchen deine Erlaubnis

Meteoprog und unser Service Anbieter werden persönliche Daten aufbewahren, so wie Cookies, Geräte Bezeichnung oder ähnliche Technologien von deinem Gerät und Prozess, so wie Persönliche Daten Inhalte und Werbungen, genauso wie social Media und den Verkehr zu analysieren.

  • Aufbewahrung und/oder Zugang zu deiner Geräte Informationen.

    Cookies, Geräte Bezeichnung oder andere Informationen, können aufbewahrt oder Zugang zu deinem Gerät erhalten, für den Grund, der oben angegeben wird.

  • Personalisierte Werbung und Inhalte, Messungen, Einblick in das Publikum und Produkt Entwicklung.

    Werbungen und Inhalte können personalisiert werden, basierend auf ein Profil. Mehr Daten können besser personalisierte Werbungen und Inhalte hinzufügen. Werbung und Inhalte können gezeigt und gemessen werden. Einblicke über das Publikum, welche die Werbung gesehen haben und den Inhalt, können abgeleitet werden. So wie Daten können genutzt werden, um es zu verbessern oder die Benutzer Erfahrung zu verbessern das System und die Software.

Wenn du “Ich stimme zu” klickst, erlaubst du uns, die Cookies zu benutzen die Geräte Bezeichnung, den Web oder ähnliche Technologien zu benutzen. Deine Settings, können in deinem Gerät bei deinem Browser geändert werden.

Für den bestimmten Zweck, berechtigten Interessen beruhen darauf, mehr als auf den Inhalt. Du kannst mehr darüber in unseren Privaten und Cookie Politik lesen.